Regional Weather Roundup
Issued by NWS

Home | Current Version | Previous Version | Graphics & Text | Print | Product List | Glossary On
Versions: 1 2 3 4 5 6 7 8 9 10 11 12 13 14 15 16 17 18 19 20 21 22 23 24 25 26 27 28 29 30 31 32 33 34 35 36 37 38 39 40 41 42 43 44 45 46 47 48 49 50
000
ASUS43 KLOT 290302
RWRIL

ILLINOIS REGIONAL WEATHER ROUNDUP
NATIONAL WEATHER SERVICE CHICAGO/ROMEOVILLE IL
1000 PM CDT SAT MAR 28 2015

NOTE: "FAIR" INDICATES FEW OR NO CLOUDS BELOW 12,000 FEET WITH NO
SIGNIFICANT WEATHER AND/OR OBSTRUCTIONS TO VISIBILITY.

* THESE STATIONS ARE NOT UNDER NWS QUALITY CONTROL. THEY ALSO MAY NOT
  REPORT WEATHER SUCH AS PRECIPITATION OR FOG.

ILZ001-002-007-009-015-016-024-290400-
NORTHWEST ILLINOIS

CITY           SKY/WX    TMP DP  RH WIND       PRES   REMARKS
MOLINE         CLEAR     31  14  49 S9        30.24F WCI  23
STERLING*      CLEAR     30  16  55 S5        30.26S WCI  25
$$

ILZ003-004-008-010-011-017-018-290400-
NORTH CENTRAL ILLINOIS

CITY           SKY/WX    TMP DP  RH WIND       PRES   REMARKS
ROCKFORD       CLEAR     30  15  53 S5        30.27F WCI  25
FREEPORT*      CLEAR     23  18  78 S6        30.26S WCI  16
$$

ILZ005-006-012>014-019>023-290400-
NORTHEAST ILLINOIS

CITY           SKY/WX    TMP DP  RH WIND       PRES   REMARKS
CHICAGO-OHARE  CLEAR     25  12  58 SE9       30.29R WCI  15
CHICAGO-MIDWAY CLEAR     30  14  51 SE7       30.31S WCI  23
AURORA         CLEAR     27  13  55 SE8       30.28S WCI  19
LANSING*       CLEAR     26  10  52 SE3       30.32S
WAUKEGAN       CLEAR     27  15  61 S5        30.28S WCI  22
DUPAGE AIRPORT FAIR      29  11  47 SE8       30.27F WCI  21
WHEELING       CLEAR     25   9  50 SE3       30.30S
NORTHERLY ISL    N/A     30  15  53 SE7         N/A  WCI  23
$$

LMZ740>746-290400-
SOUTHERN LAKE MICHIGAN

STATION/POSITION SKY/WX   TEMP    WIND        PRES    VSBY  WAVE
                          AIR SEA DIR/SP/G                  HT/PER
                          (F)     (DEG/KT/KT) (MB)    (MI)  (FT/S)
HARRISON CRIB              29     140/ 11/ 13   N/A
BURNHAM HARBOR             29     120/  6/  8   N/A
CALUMET HARBOR             30     100/  6/  9 1024.9R
BURNS HARBOR               26      90/  5/  7 1026.8S
MICHIGAN CITY              26      80/  5/  5   N/A
$$

ILZ025>027-034>036-040-047-049-050-058-095>099-290400-
WEST-CENTRAL ILLINOIS

CITY           SKY/WX    TMP DP  RH WIND       PRES   REMARKS
QUINCY         CLEAR     34  19  54 SE10      30.23S WCI  26
$$

ILZ028>032-037-038-041>044-048-051>054-059>061-290400-
CENTRAL ILLINOIS

CITY           SKY/WX    TMP DP  RH WIND       PRES   REMARKS
DECATUR        CLEAR     31  19  61 SE7       30.31R WCI  24
PEORIA         CLEAR     34  17  50 S6        30.29R WCI  29
LINCOLN*       CLEAR     32  24  72 S5        30.32R WCI  27
SPRINGFIELD    CLEAR     31  20  63 SE7       30.30R WCI  24
TAYLORVILLE    NOT AVBL
$$

ILZ033-039-045-046-055>057-062-063-290400-
EAST-CENTRAL ILLINOIS

CITY           SKY/WX    TMP DP  RH WIND       PRES   REMARKS
CHAMPAIGN      CLEAR     29  19  66 SE7       30.31R WCI  22
DANVILLE*      FAIR      28  20  70 CALM      30.30S
MATTOON        CLEAR     31  18  58 SE3       30.31R
$$

ILZ079-100>102-290400-
SOUTHWEST ILLINOIS

CITY           SKY/WX    TMP DP  RH WIND       PRES   REMARKS
BELLEVILLE     CLEAR     35  23  60 SE6       30.30R WCI  30
CAHOKIA*       CLEAR     37  21  52 SE7       30.30R WCI  32
SPARTA*        CLEAR     34  19  54 SE5       30.31S WCI  30
$$

ILZ064>066-069>071-074>076-080>082-084>086-088>090-092>094-290400-
SOUTH-CENTRAL ILLINOIS

CITY           SKY/WX    TMP DP  RH WIND       PRES   REMARKS
CARBONDALE     CLEAR     34  20  56 E6        30.32R WCI  29
MT. VERNON     CLEAR     28  16  59 CALM      30.33R
SALEM*         CLEAR     36  18  47 CALM      30.33R
$$

ILZ067-068-072-073-078-083-087-091-290400-
SOUTHEAST ILLINOIS

CITY           SKY/WX    TMP DP  RH WIND       PRES   REMARKS
LAWRENCEVILLE  CLEAR     33  16  49 CALM      30.35R
HARRISBURG*    CLEAR     33  23  66 E3        30.35R
ROBINSON*      CLEAR     30  25  81 CALM      30.36R
$$

ABBREVIATIONS USED IN REMARKS
   TC - TEMPERATURE IN CELSIUS
  WCI - WIND CHILL INDEX
   HX - HEAT INDEX
  VSB - VISIBILITY
$$




USA.gov is the U.S. government's official web portal to all federal, state and local government web resources and services.